Weather History for Moses Lake, WA

Change the Weather History Date:

Sunday, December 8, 2013

  Actual Average Record
Temperature  
Mean Temperature 7 °F 30 °F  
Max Temperature 19 °F 36 °F 50 °F (2004)
Min Temperature -5 °F 24 °F -5 °F (2013)
Degree Days  
Heating Degree Days 58 35  
Month to date heating degree days 343 275  
Since 1 July heating degree days 1778 1736  
Cooling Degree Days 0 0  
Month to date cooling degree days 0 0  
Year to date cooling degree days 948 615  
Moisture  
Dew Point -2 °F    
Average Humidity 61    
Maximum Humidity 79    
Minimum Humidity 43    
Precipitation  
Precipitation 0.00 in 0.04 in 0.30 in (1983)
Month to date precipitation T 0.29  
Year to date precipitation 5.86 7.96  
Sea Level Pressure  
Sea Level Pressure 30.53 in    
Wind  
Wind Speed 2 mph (East)    
Max Wind Speed 8 mph    
Max Gust Speed 9 mph    
Visibility 10 miles    
Events      
T = Trace of Precipitation, MM = Missing Value Source: NWS Daily Summary

Daily Weather History Graph

Daily Weather History Graph

Search for Another Location

Airport:

Trip Planner

Search our weather history database for the weather conditions in past years. The results will help you decide how hot, cold, wet, or windy it might be!

Date:

Astronomy

Dec. 08, 2013 Rise Set
Actual Time 7:31 AM PST 4:07 PM PST
Civil Twilight 6:55 AM PST 4:42 PM PST
Nautical Twilight 6:17 AM PST 5:21 PM PST
Astronomical Twilight 5:40 AM PST 5:58 PM PST
Moon 11:35 AM PST (12/8) 11:23 PM PST (12/8)
Length of Visible Light 9h 46m
Length of Day
8h 36m
Waxing Crescent, 41% of the Moon is Illuminated
Dec 8
Waxing Crescent
Dec 9
First Quarter
Dec 17
Full
Dec 25
Last Quarter
Jan 1
New

Hourly Weather History & Observations

Time (PST) Temp. Windchill Dew Point Humidity Pressure Visibility Wind Dir Wind Speed Gust Speed Precip Events Conditions
12:52 AM -0.0 °F - -6.0 °F 76% 30.45 in 10.0 mi Calm Calm - N/A   Clear
1:52 AM -0.9 °F -8.9 °F -7.1 °F 75% 30.45 in 10.0 mi ESE 3.5 mph - N/A   Clear
2:52 AM -2.9 °F - -9.0 °F 75% 30.46 in 10.0 mi Calm Calm - N/A   Clear
3:52 AM 1.0 °F -8.7 °F -5.1 °F 75% 30.47 in 10.0 mi North 4.6 mph - N/A   Clear
4:52 AM 5.0 °F - -2.0 °F 73% 30.46 in 10.0 mi Calm Calm - N/A   Mostly Cloudy
5:52 AM 7.0 °F 0.1 °F -2.0 °F 67% 30.48 in 10.0 mi ESE 3.5 mph - N/A   Overcast
6:52 AM 8.1 °F - -2.0 °F 64% 30.50 in 10.0 mi Calm Calm - N/A   Overcast
7:52 AM 9.0 °F 2.4 °F -0.9 °F 64% 30.50 in 10.0 mi East 3.5 mph - N/A   Overcast
8:52 AM 9.0 °F - -0.9 °F 64% 30.53 in 10.0 mi Calm Calm - N/A   Overcast
9:52 AM 10.0 °F - -0.9 °F 61% 30.54 in 10.0 mi Calm Calm - N/A   Overcast
10:52 AM 12.9 °F 5.2 °F -0.9 °F 54% 30.54 in 10.0 mi NE 4.6 mph - N/A   Overcast
11:52 AM 15.1 °F 9.4 °F -0.9 °F 49% 30.53 in 10.0 mi Variable 3.5 mph - N/A   Clear
12:52 PM 18.0 °F 12.7 °F -2.0 °F 41% 30.53 in 10.0 mi NNE 3.5 mph - N/A   Clear
1:52 PM 18.0 °F - -2.0 °F 41% 30.53 in 10.0 mi Calm Calm - N/A   Clear
2:52 PM 18.0 °F - -2.0 °F 41% 30.55 in 10.0 mi Calm Calm - N/A   Clear
3:52 PM 17.1 °F - -2.0 °F 43% 30.56 in 10.0 mi Calm Calm - N/A   Clear
4:52 PM 14.0 °F 8.2 °F -0.9 °F 52% 30.56 in 10.0 mi South 3.5 mph - N/A   Clear
5:52 PM 12.9 °F - -0.9 °F 54% 30.57 in 10.0 mi Calm Calm - N/A   Clear
6:52 PM 14.0 °F 5.1 °F 1.0 °F 56% 30.56 in 10.0 mi South 5.8 mph - N/A   Clear
7:52 PM 14.0 °F 5.1 °F 1.9 °F 59% 30.58 in 10.0 mi South 5.8 mph - N/A   Clear
8:52 PM 8.1 °F -0.5 °F 1.0 °F 73% 30.61 in 10.0 mi ENE 4.6 mph - N/A   Clear
9:52 PM 7.0 °F 0.1 °F -0.9 °F 70% 30.61 in 10.0 mi ESE 3.5 mph - N/A   Clear
10:52 PM 7.0 °F - -2.0 °F 67% 30.59 in 10.0 mi Calm Calm - N/A   Clear
11:52 PM 5.0 °F - -2.0 °F 73% 30.59 in 10.0 mi Calm Calm - N/A   Clear